AirNav   Pilot Hours Calculator
 
 1380 users online  

03VA Spotsylvania Regional Medical Center Heliport
Fredericksburg, Virginia, USA

GOING TO FREDERICKSBURG?


FAA INFORMATION EFFECTIVE 19 MAY 2022

Location

FAA Identifier: 03VA
Lat/Long: 38-12-59.8200N 077-29-43.9800W
38-12.997000N 077-29.733000W
38.2166167,-77.4955500
(estimated)
Elevation: 237 ft. / 72 m (estimated)
From city: 5 miles S of FREDERICKSBURG, VA
Time zone: UTC -4 (UTC -5 during Standard Time)
Zip code: 22408

Heliport Operations

Heliport use: Private use. Permission required prior to landing
Activation date: 02/2010
Control tower: no
ARTCC: WASHINGTON CENTER
FSS: LEESBURG FLIGHT SERVICE STATION
Attendance: CONTINUOUS
Wind indicator: yes
Segmented circle: no
Lights: SS-SR

Heliport Communications

WX AWOS-3 at EZF (4 nm NE): 128.125 (540-372-6794)
WX AWOS-3 at RMN (11 nm N): 126.325 (540-657-8283)
WX AWOS-3 at 7W4 (19 nm SW): 120.775 (540-872-0303)

Nearby radio navigation aids

VOR radial/distance  VOR name  Freq  Var
BRVr232/9.8BROOKE VORTAC114.5009W
CSNr152/30.8CASANOVA VORTAC116.3006W
GVEr075/33.3GORDONSVILLE VORTAC115.6006W

 
NDB name  Hdg/Dist  Freq  Var  ID
SHANNON225/3.723710WEZF . --.. ..-.
NAILR136/24.035110WMSQ -- ... --.-
DAVEE223/32.322309WDAA -.. .- .-
OXONN225/39.633211WDCA -.. -.-. .-

Heliport Services

Runway Information

Helipad H1

Dimensions: 54 x 54 ft. / 16 x 16 m
Surface: concrete
Runway edge lights: FLD
Latitude: 38-12.997000N
Longitude: 077-29.733000W
Elevation: 237.0 ft.
Traffic pattern: leftleft

Heliport Ownership and Management from official FAA records

Ownership: Privately-owned
Owner: SPOTSYLVANIA REGIONAL MEDICAL CNTR
4600 SPOTSYLVANIA PKWY
FREDERICKSBURG, VA 22408
Phone (540) 498-4350
Manager: JAMES MCCAMMON
4600 SPOTSYLVANIA PKWY
FREDERICKSBURG, VA 22408
Phone (540) 498-4350

Additional Remarks

FOR CD CTC POTOMAC APCH AT 866-709-4993.

Instrument Procedures

There are no published instrument procedures at 03VA.

Some nearby airports with instrument procedures:

KEZF - Shannon Airport (4 nm NE)
KRMN - Stafford Regional Airport (11 nm N)
7W4 - Lake Anna Airport (19 nm SW)
KNYG - Quantico Marine Corps Air Facility (Turner Field) (19 nm NE)
KHWY - Warrenton/Fauquier Airport (24 nm NW)
 
Loc | Ops | Rwys | IFR | FBO | Links
Com | Nav | Svcs | Stats | Notes
Aerial photo
WARNING: Photo may not be current or correct
Aerial photo of 03VA (Spotsylvania Regional Medical Center Heliport)
Photo taken 15-Apr-2010

Do you have a better or more recent aerial photo of Spotsylvania Regional Medical Center Heliport that you would like to share? If so, please send us your photo.

 
Sectional chart

 
Airport distance calculator
Flying to Spotsylvania Regional Medical Center Heliport? Find the distance to fly.

From to 03VA

Sunrise and sunset
Times for 27-May-2022
 Local
(UTC-4)
 Zulu
(UTC)
Morning civil twilight05:2109:21
Sunrise05:5209:52
Sunset20:2300:23
Evening civil twilight20:5300:53

Current date and time
Zulu (UTC)  27-May-2022 16:42:32
Local (UTC-4)  27-May-2022 12:42:32
 
METAR
KEZF 
4nm NE 
271615Z AUTO 20006KT 10SM RA SCT090 BKN110 20/20 A2989 RMK AO2 P0001 T02020202
KRMN 
11nm N 
271615Z AUTO 00000KT 10SM SCT019 BKN090 OVC110 19/18 A2994 RMK AO2 LTG DSNT E T01940179
K7W4 
19nm SW 
271615Z AUTO 10003KT 4SM SCT009 SCT041 OVC100 19/19 A2989 RMK AO1 T01920187
KNYG 
20nm NE 
271619Z 20007KT 5SM -TSRA SCT027 OVC090 21/17 A2990 RMK AO2 WSHFT 1546 RAB1557 P0021 T02060172
TAF
KNYG 
20nm NE 
2521/2621 12009KT 9999 SCT040 OVC060 QNH3029INS BECMG 2602/2604 VRB06KT 9999 SCT020 OVC050 QNH3009INS T14/2610Z T21/2621Z LAST NO AMENDS UNTIL 2609
NOTAMs
Click for the latest NOTAMs
NOTAMs are issued by the DoD/FAA and will open in a separate window not controlled by AirNav.

 

 
 

Would you like to see your business listed on this page?

 If your business provides an interesting product or service to pilots, flight crews, aircraft, or users of the Spotsylvania Regional Medical Center Heliport, you should consider listing it here.  To start the listing process, click on the button below
 
Add a business
 

Other Pages about Spotsylvania Regional Medical Center Heliport

Update a link
 
Copyright © AirNav, LLC. All rights reserved. Privacy Policy  Contact